• In United Kingdom
  • List of Countries
  • For 7 days
  • Water Temperature
  • Satellite Maps
  • Weather Map
  • Weather Widgets
  • user-avatar
    Login

    Hourly Weather Priazovskoe

    Today, 16 December, Saturday

    Time Temperature Precipitation Wind Pressure Humidity
    00:00 +7°C° 0 mm 4 mps 761 mmHg 92%
    01:00 +7°C° 0 mm 4 mps 761 mmHg 91%
    02:00 +7°C° 0 mm 4 mps 761 mmHg 91%
    03:00 +7°C° 0 mm 5 mps 761 mmHg 90%
    04:00 +7°C° 0 mm 5 mps 760 mmHg 88%
    05:00 +7°C° 0 mm 5 mps 760 mmHg 87%
    06:00 +7°C° 0 mm 6 mps 760 mmHg 84%
    07:00 +8°C° 0 mm 6 mps 760 mmHg 80%
    08:00 +8°C° 0 mm 7 mps 760 mmHg 76%
    09:00 +9°C° 0 mm 8 mps 759 mmHg 71%
    10:00 +10°C° 0 mm 8 mps 759 mmHg 66%
    11:00 +11°C° 0 mm 9 mps 759 mmHg 61%
    12:00 +12°C° 0 mm 9 mps 759 mmHg 60%
    13:00 +12°C° 0 mm 8 mps 759 mmHg 60%
    14:00 +13°C° 0 mm 8 mps 759 mmHg 59%
    15:00 +12°C° 0 mm 8 mps 759 mmHg 64%
    16:00 +11°C° 0 mm 7 mps 759 mmHg 69%
    17:00 +10°C° 0 mm 7 mps 759 mmHg 74%
    18:00 +10°C° 0 mm 7 mps 759 mmHg 75%
    19:00 +10°C° 0 mm 7 mps 759 mmHg 75%
    20:00 +10°C° 0 mm 7 mps 759 mmHg 76%
    21:00 +10°C° 0 mm 8 mps 760 mmHg 75%
    22:00 +10°C° 0 mm 8 mps 760 mmHg 75%
    23:00 +10°C° 0 mm 8 mps 760 mmHg 74%

    Tomorrow, 17 December, Sunday

    Time Temperature Precipitation Wind Pressure Humidity
    00:00 +10°C° 0 mm 8 mps 760 mmHg 73%
    01:00 +10°C° 0 mm 8 mps 760 mmHg 72%
    02:00 +10°C° 0 mm 8 mps 760 mmHg 71%
    03:00 +10°C° 0 mm 8 mps 760 mmHg 70%
    04:00 +10°C° 0 mm 8 mps 760 mmHg 69%
    05:00 +11°C° 0 mm 8 mps 760 mmHg 68%
    06:00 +10°C° 0.1 mm 7 mps 760 mmHg 71%
    07:00 +10°C° 0.1 mm 7 mps 760 mmHg 73%
    08:00 +10°C° 0.1 mm 7 mps 760 mmHg 75%
    09:00 +11°C° 0.2 mm 7 mps 760 mmHg 73%
    10:00 +11°C° 0.2 mm 7 mps 760 mmHg 71%
    11:00 +12°C° 0.2 mm 7 mps 760 mmHg 69%
    12:00 +13°C° 0.1 mm 6 mps 760 mmHg 68%
    13:00 +11°C° 0.1 mm 6 mps 759 mmHg 68%
    14:00 +11°C° 0.1 mm 6 mps 759 mmHg 68%
    15:00 +10°C° 0.1 mm 6 mps 759 mmHg 71%
    16:00 +10°C° 0.1 mm 6 mps 759 mmHg 73%
    17:00 +9°C° 0.1 mm 7 mps 759 mmHg 76%
    18:00 +9°C° 0.4 mm 7 mps 759 mmHg 78%
    19:00 +9°C° 0.4 mm 7 mps 759 mmHg 80%
    20:00 +9°C° 0.4 mm 7 mps 758 mmHg 82%
    21:00 +9°C° 0.4 mm 6 mps 758 mmHg 84%
    22:00 +9°C° 0.4 mm 6 mps 758 mmHg 86%
    23:00 +9°C° 0.4 mm 5 mps 758 mmHg 88%

    Day after tomorrow, 18 December, Monday

    Time Temperature Precipitation Wind Pressure Humidity
    00:00 +9°C° 0.5 mm 5 mps 758 mmHg 89%
    01:00 +9°C° 0.5 mm 6 mps 758 mmHg 90%
    02:00 +9°C° 0.5 mm 6 mps 758 mmHg 90%
    03:00 +9°C° 0.5 mm 6 mps 758 mmHg 90%
    04:00 +9°C° 0.5 mm 6 mps 757 mmHg 90%
    05:00 +10°C° 0.5 mm 7 mps 757 mmHg 89%
    06:00 +9°C° 0.1 mm 7 mps 757 mmHg 90%
    07:00 +9°C° 0.1 mm 7 mps 758 mmHg 90%
    08:00 +9°C° 0.1 mm 7 mps 758 mmHg 90%
    09:00 +8°C° 0 mm 7 mps 759 mmHg 86%
    10:00 +8°C° 0 mm 7 mps 759 mmHg 82%
    11:00 +6°C° 0 mm 7 mps 760 mmHg 78%
    12:00 +6°C° 0 mm 7 mps 760 mmHg 76%
    13:00 +5°C° 0 mm 7 mps 760 mmHg 74%
    14:00 +5°C° 0 mm 6 mps 760 mmHg 72%
    15:00 +5°C° 0 mm 6 mps 761 mmHg 72%
    16:00 +5°C° 0 mm 5 mps 761 mmHg 72%
    17:00 +5°C° 0 mm 5 mps 762 mmHg 72%
    18:00 +3°C° 0 mm 5 mps 762 mmHg 73%
    19:00 +2°C° 0 mm 5 mps 763 mmHg 75%
    20:00 +2°C° 0 mm 5 mps 763 mmHg 76%
    21:00 +2°C° 0 mm 5 mps 763 mmHg 75%
    22:00 +1°C° 0 mm 5 mps 764 mmHg 75%
    23:00 +1°C° 0 mm 4 mps 764 mmHg 74%

    19 December, Tuesday

    Time Temperature Precipitation Wind Pressure Humidity
    00:00 +1°C° 0 mm 4 mps 764 mmHg 74%
    01:00 +1°C° 0 mm 4 mps 764 mmHg 74%
    02:00 +1°C° 0 mm 4 mps 764 mmHg 73%
    03:00 0°C° 0 mm 4 mps 765 mmHg 74%
    04:00 0°C° 0 mm 4 mps 765 mmHg 74%
    05:00 0°C° 0 mm 4 mps 765 mmHg 75%
    06:00 0°C° 0 mm 5 mps 765 mmHg 76%
    07:00 -1°C° 0 mm 5 mps 766 mmHg 77%
    08:00 -1°C° 0 mm 5 mps 766 mmHg 78%
    09:00 0°C° 0 mm 5 mps 767 mmHg 75%
    10:00 0°C° 0 mm 4 mps 767 mmHg 72%
    11:00 +1°C° 0 mm 4 mps 767 mmHg 68%
    12:00 +1°C° 0 mm 4 mps 767 mmHg 67%
    13:00 +1°C° 0 mm 4 mps 767 mmHg 65%
    14:00 +1°C° 0 mm 4 mps 767 mmHg 63%
    15:00 +1°C° 0 mm 4 mps 768 mmHg 66%
    16:00 0°C° 0 mm 4 mps 768 mmHg 70%
    17:00 -1°C° 0 mm 4 mps 769 mmHg 73%
    18:00 -1°C° 0 mm 4 mps 769 mmHg 75%
    19:00 -2°C° 0 mm 4 mps 769 mmHg 77%
    20:00 -2°C° 0 mm 4 mps 769 mmHg 79%
    21:00 -2°C° 0 mm 4 mps 769 mmHg 80%
    22:00 -2°C° 0 mm 3 mps 770 mmHg 80%
    23:00 -2°C° 0 mm 3 mps 770 mmHg 81%

    20 December, Wednesday

    Time Temperature Precipitation Wind Pressure Humidity
    00:00 -2°C° 0 mm 3 mps 770 mmHg 80%
    01:00 -2°C° 0 mm 3 mps 770 mmHg 79%
    02:00 -2°C° 0 mm 3 mps 770 mmHg 79%
    03:00 -2°C° 0 mm 2 mps 770 mmHg 78%
    04:00 -2°C° 0 mm 2 mps 770 mmHg 77%
    05:00 -2°C° 0 mm 2 mps 769 mmHg 76%
    06:00 -2°C° 0 mm 2 mps 770 mmHg 76%
    07:00 -2°C° 0 mm 2 mps 770 mmHg 76%
    08:00 -2°C° 0 mm 2 mps 770 mmHg 75%
    09:00 -2°C° 0 mm 3 mps 770 mmHg 70%
    10:00 -1°C° 0 mm 3 mps 769 mmHg 65%
    11:00 0°C° 0 mm 3 mps 769 mmHg 61%
    12:00 0°C° 0 mm 3 mps 769 mmHg 59%
    13:00 +1°C° 0 mm 2 mps 769 mmHg 57%
    14:00 +1°C° 0 mm 2 mps 768 mmHg 56%
    15:00 +1°C° 0.1 mm 2 mps 768 mmHg 58%
    16:00 0°C° 0.1 mm 3 mps 769 mmHg 60%
    17:00 -1°C° 0.1 mm 3 mps 769 mmHg 63%
    18:00 -1°C° 0.1 mm 3 mps 769 mmHg 65%
    19:00 -2°C° 0.1 mm 4 mps 769 mmHg 66%
    20:00 -2°C° 0.1 mm 4 mps 769 mmHg 68%
    21:00 -2°C° 0.1 mm 4 mps 769 mmHg 71%
    22:00 -2°C° 0.1 mm 4 mps 769 mmHg 73%
    23:00 -3°C° 0.1 mm 4 mps 769 mmHg 75%

    21 December, Thursday

    Time Temperature Precipitation Wind Pressure Humidity
    00:00 -3°C° 0 mm 4 mps 769 mmHg 77%
    01:00 -3°C° 0 mm 4 mps 769 mmHg 79%
    02:00 -4°C° 0 mm 4 mps 769 mmHg 81%
    03:00 -4°C° 0 mm 4 mps 769 mmHg 80%
    04:00 -5°C° 0 mm 5 mps 769 mmHg 80%
    05:00 -5°C° 0 mm 5 mps 768 mmHg 79%
    06:00 -5°C° 0 mm 5 mps 769 mmHg 78%
    07:00 -5°C° 0 mm 5 mps 769 mmHg 77%
    08:00 -5°C° 0 mm 5 mps 769 mmHg 76%
    09:00 -4°C° 0 mm 5 mps 769 mmHg 72%
    10:00 -2°C° 0 mm 5 mps 769 mmHg 68%
    11:00 -2°C° 0 mm 6 mps 769 mmHg 64%
    12:00 -2°C° 0 mm 6 mps 768 mmHg 63%
    13:00 -2°C° 0 mm 6 mps 768 mmHg 61%
    14:00 -2°C° 0 mm 6 mps 768 mmHg 60%
    15:00 -3°C° 0 mm 6 mps 768 mmHg 63%
    16:00 -3°C° 0 mm 6 mps 768 mmHg 65%
    17:00 -4°C° 0 mm 5 mps 768 mmHg 68%
    18:00 -4°C° 0 mm 5 mps 768 mmHg 69%
    19:00 -5°C° 0 mm 5 mps 768 mmHg 71%
    20:00 -5°C° 0 mm 5 mps 768 mmHg 72%
    21:00 -5°C° 0 mm 5 mps 768 mmHg 72%
    22:00 -5°C° 0 mm 5 mps 767 mmHg 73%
    23:00 -5°C° 0 mm 6 mps 767 mmHg 73%
    Show more